When you browse on this site, cookies collect data to enhance your experience and personalize the content and advertising you see.
Visit our Privacy Policy to learn more. By continuing to use the site, you agree to this use of cookies and data.
  • In Spain
  • List of Countries
  • For 7 days
  • Water Temperature
  • Weather Map
  • Weather Widgets
  • user-avatar
    Login

    Hourly Weather Terebovlya

    Today, 4 June, Thursday

    Time Temperature Precipitation Wind Pressure Humidity
    00:00 +6°C° 0 mm 2 mps 722 mmHg 92%
    01:00 +6°C° 0 mm 2 mps 722 mmHg 92%
    02:00 +6°C° 0 mm 2 mps 722 mmHg 93%
    03:00 +6°C° 0 mm 2 mps 722 mmHg 93%
    04:00 +6°C° 0 mm 2 mps 722 mmHg 93%
    05:00 +6°C° 0 mm 2 mps 722 mmHg 93%
    06:00 +8°C° 0 mm 2 mps 722 mmHg 90%
    07:00 +9°C° 0 mm 2 mps 722 mmHg 87%
    08:00 +10°C° 0 mm 2 mps 722 mmHg 83%
    09:00 +12°C° 0.2 mm 3 mps 722 mmHg 78%
    10:00 +13°C° 0.2 mm 3 mps 722 mmHg 74%
    11:00 +16°C° 0.2 mm 3 mps 721 mmHg 69%
    12:00 +17°C° 0.6 mm 4 mps 721 mmHg 69%
    13:00 +17°C° 0.6 mm 4 mps 721 mmHg 70%
    14:00 +18°C° 0.6 mm 4 mps 721 mmHg 71%
    15:00 +17°C° 0.5 mm 4 mps 721 mmHg 73%
    16:00 +17°C° 0.5 mm 4 mps 721 mmHg 75%
    17:00 +17°C° 0.5 mm 4 mps 720 mmHg 78%
    18:00 +15°C° 0.5 mm 4 mps 720 mmHg 81%
    19:00 +14°C° 0.5 mm 3 mps 720 mmHg 84%
    20:00 +13°C° 0.5 mm 3 mps 720 mmHg 87%
    21:00 +13°C° 0.2 mm 3 mps 720 mmHg 88%
    22:00 +12°C° 0.2 mm 4 mps 720 mmHg 90%
    23:00 +12°C° 0.2 mm 4 mps 720 mmHg 91%

    Tomorrow, 5 June, Friday

    Time Temperature Precipitation Wind Pressure Humidity
    00:00 +12°C° 0.1 mm 4 mps 720 mmHg 92%
    01:00 +12°C° 0.1 mm 4 mps 720 mmHg 93%
    02:00 +12°C° 0.1 mm 4 mps 720 mmHg 93%
    03:00 +13°C° 0.4 mm 4 mps 720 mmHg 93%
    04:00 +13°C° 0.4 mm 4 mps 720 mmHg 93%
    05:00 +13°C° 0.4 mm 4 mps 720 mmHg 93%
    06:00 +14°C° 0.1 mm 5 mps 720 mmHg 89%
    07:00 +15°C° 0.1 mm 5 mps 721 mmHg 86%
    08:00 +16°C° 0.1 mm 5 mps 721 mmHg 83%
    09:00 +17°C° 0 mm 5 mps 721 mmHg 81%
    10:00 +18°C° 0 mm 4 mps 721 mmHg 79%
    11:00 +18°C° 0 mm 4 mps 722 mmHg 78%
    12:00 +20°C° 0 mm 5 mps 722 mmHg 72%
    13:00 +22°C° 0 mm 5 mps 722 mmHg 67%
    14:00 +23°C° 0 mm 6 mps 722 mmHg 61%
    15:00 +23°C° 0.2 mm 5 mps 722 mmHg 65%
    16:00 +23°C° 0.2 mm 5 mps 722 mmHg 69%
    17:00 +23°C° 0.2 mm 4 mps 722 mmHg 72%
    18:00 +21°C° 0.2 mm 3 mps 722 mmHg 75%
    19:00 +20°C° 0.2 mm 2 mps 722 mmHg 77%
    20:00 +18°C° 0.2 mm 2 mps 722 mmHg 80%
    21:00 +18°C° 0.1 mm 2 mps 722 mmHg 79%
    22:00 +17°C° 0.1 mm 2 mps 723 mmHg 77%
    23:00 +17°C° 0.1 mm 2 mps 723 mmHg 76%

    Day after tomorrow, 6 June, Saturday

    Time Temperature Precipitation Wind Pressure Humidity
    00:00 +16°C° 0 mm 2 mps 723 mmHg 77%
    01:00 +16°C° 0 mm 2 mps 723 mmHg 78%
    02:00 +16°C° 0 mm 2 mps 723 mmHg 78%
    03:00 +16°C° 0 mm 2 mps 724 mmHg 80%
    04:00 +15°C° 0 mm 2 mps 724 mmHg 81%
    05:00 +15°C° 0 mm 2 mps 724 mmHg 83%
    06:00 +16°C° 0 mm 2 mps 725 mmHg 83%
    07:00 +17°C° 0 mm 2 mps 725 mmHg 83%
    08:00 +18°C° 0 mm 1 mps 726 mmHg 83%
    09:00 +19°C° 0 mm 1 mps 726 mmHg 81%
    10:00 +20°C° 0 mm 1 mps 726 mmHg 79%
    11:00 +19°C° 0 mm 0 mps 727 mmHg 76%
    12:00 +21°C° 0.2 mm 1 mps 727 mmHg 77%
    13:00 +21°C° 0.2 mm 2 mps 727 mmHg 77%
    14:00 +21°C° 0.2 mm 2 mps 727 mmHg 77%
    15:00 +21°C° 0.3 mm 2 mps 727 mmHg 79%
    16:00 +20°C° 0.3 mm 2 mps 727 mmHg 81%
    17:00 +20°C° 0.3 mm 3 mps 727 mmHg 83%
    18:00 +19°C° 0.3 mm 3 mps 727 mmHg 86%
    19:00 +19°C° 0.3 mm 3 mps 726 mmHg 88%
    20:00 +18°C° 0.3 mm 3 mps 726 mmHg 90%
    21:00 +18°C° 0.5 mm 3 mps 727 mmHg 92%
    22:00 +18°C° 0.5 mm 3 mps 727 mmHg 93%
    23:00 +18°C° 0.5 mm 4 mps 727 mmHg 94%

    7 June, Sunday

    Time Temperature Precipitation Wind Pressure Humidity
    00:00 +17°C° 0 mm 4 mps 727 mmHg 93%
    01:00 +17°C° 0 mm 4 mps 727 mmHg 92%
    02:00 +17°C° 0 mm 4 mps 727 mmHg 92%
    03:00 +15°C° 0 mm 4 mps 726 mmHg 91%
    04:00 +14°C° 0 mm 5 mps 726 mmHg 90%
    05:00 +14°C° 0 mm 5 mps 726 mmHg 90%
    06:00 +15°C° 0 mm 5 mps 726 mmHg 87%
    07:00 +16°C° 0 mm 6 mps 726 mmHg 85%
    08:00 +17°C° 0 mm 6 mps 727 mmHg 82%
    09:00 +18°C° 0 mm 7 mps 727 mmHg 80%
    10:00 +20°C° 0 mm 7 mps 727 mmHg 78%
    11:00 +22°C° 0 mm 7 mps 727 mmHg 76%
    12:00 +22°C° 0 mm 7 mps 727 mmHg 75%
    13:00 +23°C° 0 mm 7 mps 727 mmHg 75%
    14:00 +24°C° 0 mm 7 mps 727 mmHg 74%
    15:00 +23°C° 0.7 mm 6 mps 727 mmHg 76%
    16:00 +23°C° 0.7 mm 6 mps 727 mmHg 78%
    17:00 +22°C° 0.7 mm 5 mps 727 mmHg 80%
    18:00 +21°C° 0.1 mm 5 mps 727 mmHg 82%
    19:00 +20°C° 0.1 mm 4 mps 727 mmHg 85%
    20:00 +19°C° 0.1 mm 3 mps 727 mmHg 87%
    21:00 +18°C° 0 mm 3 mps 727 mmHg 87%
    22:00 +17°C° 0 mm 3 mps 728 mmHg 87%
    23:00 +17°C° 0 mm 2 mps 728 mmHg 86%

    8 June, Monday

    Time Temperature Precipitation Wind Pressure Humidity
    00:00 +17°C° 0 mm 3 mps 728 mmHg 88%
    01:00 +16°C° 0 mm 3 mps 727 mmHg 89%
    02:00 +16°C° 0 mm 3 mps 727 mmHg 91%
    03:00 +16°C° 0.1 mm 3 mps 727 mmHg 92%
    04:00 +16°C° 0.1 mm 3 mps 727 mmHg 93%
    05:00 +17°C° 0.1 mm 3 mps 727 mmHg 93%
    06:00 +18°C° 0.2 mm 3 mps 727 mmHg 91%
    07:00 +19°C° 0.2 mm 3 mps 727 mmHg 89%
    08:00 +20°C° 0.2 mm 4 mps 727 mmHg 87%
    09:00 +21°C° 0.2 mm 4 mps 727 mmHg 83%
    10:00 +22°C° 0.2 mm 4 mps 727 mmHg 79%
    11:00 +23°C° 0.2 mm 5 mps 727 mmHg 76%
    12:00 +25°C° 0.4 mm 5 mps 727 mmHg 75%
    13:00 +25°C° 0.4 mm 5 mps 726 mmHg 75%
    14:00 +25°C° 0.4 mm 5 mps 726 mmHg 75%
    15:00 +25°C° 0.2 mm 5 mps 726 mmHg 76%
    16:00 +25°C° 0.2 mm 5 mps 726 mmHg 76%
    17:00 +25°C° 0.2 mm 5 mps 725 mmHg 77%
    18:00 +22°C° 0.1 mm 4 mps 725 mmHg 80%
    19:00 +21°C° 0.1 mm 3 mps 725 mmHg 84%
    20:00 +20°C° 0.1 mm 2 mps 725 mmHg 87%
    21:00 +19°C° 0.1 mm 2 mps 725 mmHg 88%
    22:00 +18°C° 0.1 mm 2 mps 725 mmHg 90%
    23:00 +17°C° 0.1 mm 2 mps 725 mmHg 91%

    9 June, Tuesday

    Time Temperature Precipitation Wind Pressure Humidity
    00:00 +17°C° 0 mm 2 mps 725 mmHg 92%
    01:00 +17°C° 0 mm 2 mps 725 mmHg 92%
    02:00 +16°C° 0 mm 2 mps 725 mmHg 92%
    03:00 +16°C° 0 mm 2 mps 725 mmHg 93%
    04:00 +16°C° 0 mm 2 mps 726 mmHg 93%
    05:00 +16°C° 0 mm 2 mps 726 mmHg 93%
    06:00 +18°C° 0 mm 2 mps 726 mmHg 91%
    07:00 +19°C° 0 mm 2 mps 726 mmHg 88%
    08:00 +21°C° 0 mm 2 mps 727 mmHg 85%
    09:00 +22°C° 0.1 mm 3 mps 727 mmHg 81%
    10:00 +24°C° 0.1 mm 3 mps 727 mmHg 78%
    11:00 +25°C° 0.1 mm 3 mps 727 mmHg 74%
    12:00 +26°C° 0.9 mm 3 mps 727 mmHg 72%
    13:00 +26°C° 0.9 mm 3 mps 727 mmHg 71%
    14:00 +27°C° 0.9 mm 3 mps 727 mmHg 69%
    15:00 +26°C° 0.8 mm 3 mps 727 mmHg 71%
    16:00 +26°C° 0.8 mm 3 mps 727 mmHg 73%
    17:00 +26°C° 0.8 mm 2 mps 727 mmHg 75%
    18:00 +24°C° 0.7 mm 3 mps 727 mmHg 79%
    19:00 +22°C° 0.7 mm 3 mps 727 mmHg 82%
    20:00 +21°C° 0.7 mm 3 mps 727 mmHg 85%
    21:00 +20°C° 0.2 mm 3 mps 727 mmHg 86%
    22:00 +19°C° 0.2 mm 3 mps 727 mmHg 88%
    23:00 +19°C° 0.2 mm 3 mps 727 mmHg 89%
    Show more